Location: Academy at Carrie F Thomas
(32.8490°N, 97.2053°W)
Time: 04:22:05
(UTC+00:00)

Meteor 2-15 Rocket - Pass Details

Date: 06 July 2022
Orbit: 939 x 956 km, 82.5° (Epoch: 14 August)

Event Time Altitude Azimuth Distance (km) Brightness Sun altitude
Rises 10:21:38 0° 2° (N) 3,637 8.1 -12.3°
Reaches altitude 10° 10:24:18 10° 9° (N) 2,686 7.5 -11.9°
Maximum altitude 10:30:06 42° 79° (E) 1,324 5.8 -10.9°
Drops below altitude 10° 10:35:50 10° 149° (SSE) 2,662 6.8 -9.9°
Sets 10:38:26 0° 156° (SSE) 3,601 7.4 -9.5°
